| time (UTC) | temp F | wind direction | speed MPH | gust MPH | rain 1hr in | rain 24hr in | rain mn in | humidity % | barometer mb |
| 20260505001517 | 80 | 292 | 5.0 | 10.0 | 0.00 | 0.00 | 0.00 | 43 | 1010.3 |
| 20260505001016 | 79 | 286 | 5.0 | 8.0 | 0.00 | 0.00 | 0.00 | 44 | 1010.3 |
| 20260505000516 | 79 | 257 | 2.0 | 9.0 | 0.00 | 0.00 | 0.00 | 45 | 1010.3 |
| 20260505000019 | 80 | 250 | 5.0 | 10.0 | 0.00 | 0.00 | 0.00 | 42 | 1010.4 |
| 20260504235516 | 80 | 292 | 3.0 | 10.0 | 0.00 | 0.00 | 0.00 | 42 | 1010.4 |
| 20260504235016 | 78 | 249 | 2.0 | 8.0 | 0.00 | 0.00 | 0.00 | 42 | 1010.4 |
| 20260504234516 | 78 | 254 | 3.0 | 8.0 | 0.00 | 0.00 | 0.00 | 42 | 1010.4 |
| 20260504234015 | 79 | 244 | 4.0 | 8.0 | 0.00 | 0.00 | 0.00 | 43 | 1010.4 |
| 20260504233515 | 80 | 294 | 4.0 | 10.0 | 0.00 | 0.00 | 0.00 | 42 | 1010.5 |
| 20260504233014 | 79 | 272 | 4.0 | 8.0 | 0.00 | 0.00 | 0.00 | 46 | 1010.5 |
| 20260504232013 | 79 | 261 | 4.0 | 9.0 | 0.00 | 0.00 | 0.00 | 46 | 1010.5 |
| 20260504231514 | 79 | 209 | 5.0 | 9.0 | 0.00 | 0.00 | 0.00 | 46 | 1010.6 |
| 20260504231017 | 79 | 303 | 3.0 | 9.0 | 0.00 | 0.00 | 0.00 | 44 | 1010.5 |
| 20260504230513 | 79 | 252 | 3.0 | 10.0 | 0.00 | 0.00 | 0.00 | 44 | 1010.6 |
| 20260504230013 | 79 | 293 | 2.0 | 10.0 | 0.00 | 0.00 | 0.00 | 45 | 1010.7 |
| 20260504225514 | 80 | 266 | 4.0 | 10.0 | 0.00 | 0.00 | 0.00 | 43 | 1010.8 |
| 20260504225012 | 79 | 244 | 3.0 | 8.0 | 0.00 | 0.00 | 0.00 | 42 | 1010.7 |
| 20260504224516 | 80 | 296 | 4.0 | 8.0 | 0.00 | 0.00 | 0.00 | 42 | 1010.8 |
| 20260504224018 | 81 | 276 | 4.0 | 9.0 | 0.00 | 0.00 | 0.00 | 40 | 1010.8 |
| 20260504223512 | 81 | 288 | 5.0 | 9.0 | 0.00 | 0.00 | 0.00 | 38 | 1010.8 |
| 20260504223012 | 81 | 240 | 3.0 | 8.0 | 0.00 | 0.00 | 0.00 | 41 | 1010.9 |
| 20260504222011 | 80 | 265 | 4.0 | 10.0 | 0.00 | 0.00 | 0.00 | 39 | 1011.0 |
| 20260504221511 | 79 | 302 | 5.0 | 10.0 | 0.00 | 0.00 | 0.00 | 40 | 1011.0 |
| 20260504221011 | 79 | 286 | 4.0 | 10.0 | 0.00 | 0.00 | 0.00 | 42 | 1011.0 |
| 20260504220511 | 81 | 306 | 3.0 | 10.0 | 0.00 | 0.00 | 0.00 | 40 | 1011.1 |
| 20260504220028 | 80 | 293 | 5.0 | 8.0 | 0.00 | 0.00 | 0.00 | 39 | 1011.0 |
| 20260504215511 | 79 | 272 | 3.0 | 8.0 | 0.00 | 0.00 | 0.00 | 41 | 1011.1 |
| 20260504215011 | 78 | 226 | 2.0 | 11.0 | 0.00 | 0.00 | 0.00 | 41 | 1011.1 |
| 20260504214511 | 80 | 302 | 3.0 | 11.0 | 0.00 | 0.00 | 0.00 | 39 | 1011.1 |
| 20260504214008 | 80 | 288 | 5.0 | 10.0 | 0.00 | 0.00 | 0.00 | 40 | 1011.2 |
| 20260504213507 | 79 | 327 | 3.0 | 9.0 | 0.00 | 0.00 | 0.00 | 42 | 1011.2 |
| 20260504213009 | 78 | 247 | 4.0 | 9.0 | 0.00 | 0.00 | 0.00 | 42 | 1011.2 |
| 20260504212009 | 79 | 242 | 7.0 | 10.0 | 0.00 | 0.00 | 0.00 | 42 | 1011.2 |
| 20260504211506 | 79 | 274 | 4.0 | 10.0 | 0.00 | 0.00 | 0.00 | 45 | 1011.2 |
| 20260504211005 | 77 | 269 | 4.0 | 10.0 | 0.00 | 0.00 | 0.00 | 46 | 1011.2 |
| 20260504210505 | 78 | 254 | 7.0 | 10.0 | 0.00 | 0.00 | 0.00 | 45 | 1011.2 |
| 20260504210005 | 79 | 344 | 3.0 | 10.0 | 0.00 | 0.00 | 0.00 | 42 | 1011.2 |
| 20260504205505 | 78 | 311 | 6.0 | 10.0 | 0.00 | 0.00 | 0.00 | 44 | 1011.2 |
| 20260504205005 | 78 | 266 | 3.0 | 8.0 | 0.00 | 0.00 | 0.00 | 46 | 1011.2 |
| 20260504204507 | 78 | 281 | 5.0 | 8.0 | 0.00 | 0.00 | 0.00 | 45 | 1011.3 |
| 20260504204005 | 78 | 228 | 3.0 | 7.0 | 0.00 | 0.00 | 0.00 | 46 | 1011.2 |
| 20260504203505 | 78 | 297 | 4.0 | 8.0 | 0.00 | 0.00 | 0.00 | 47 | 1011.2 |
| 20260504203005 | 79 | 297 | 7.0 | 10.0 | 0.00 | 0.00 | 0.00 | 45 | 1011.3 |
| 20260504202003 | 78 | 288 | 5.0 | 10.0 | 0.00 | 0.00 | 0.00 | 46 | 1011.4 |
| 20260504201502 | 77 | 305 | 3.0 | 8.0 | 0.00 | 0.00 | 0.00 | 47 | 1011.4 |
| 20260504201002 | 76 | 275 | 5.0 | 9.0 | 0.00 | 0.00 | 0.00 | 49 | 1011.4 |
| 20260504200502 | 76 | 243 | 4.0 | 9.0 | 0.00 | 0.00 | 0.00 | 48 | 1011.4 |
| 20260504200003 | 76 | 281 | 6.0 | 9.0 | 0.00 | 0.00 | 0.00 | 48 | 1011.5 |
| 20260504195502 | 77 | 216 | 3.0 | 8.0 | 0.00 | 0.00 | 0.00 | 45 | 1011.5 |
| 20260504195002 | 75 | 250 | 1.0 | 8.0 | 0.00 | 0.00 | 0.00 | 48 | 1011.7 |
| 20260504194600 | 76 | 270 | 3.0 | 8.0 | 0.00 | 0.00 | 0.00 | 46 | 1011.5 |
| 20260504194059 | 77 | 282 | 4.0 | 8.0 | 0.00 | 0.00 | 0.00 | 45 | 1011.5 |
| 20260504193559 | 76 | 279 | 4.0 | 8.0 | 0.00 | 0.00 | 0.00 | 47 | 1011.7 |
| 20260504193112 | 75 | 348 | 3.0 | 10.0 | 0.00 | 0.00 | 0.00 | 48 | 1011.7 |
| 20260504192100 | 75 | 289 | 2.0 | 8.0 | 0.00 | 0.00 | 0.00 | 50 | 1011.7 |
| 20260504191557 | 74 | 260 | 4.0 | 8.0 | 0.00 | 0.00 | 0.00 | 50 | 1011.8 |
| 20260504191057 | 74 | 252 | 4.0 | 8.0 | 0.00 | 0.00 | 0.00 | 49 | 1011.9 |
| 20260504190557 | 75 | 262 | 5.0 | 8.0 | 0.00 | 0.00 | 0.00 | 50 | 1011.9 |
| 20260504190108 | 74 | 266 | 3.0 | 8.0 | 0.00 | 0.00 | 0.00 | 53 | 1011.9 |
| 20260504185556 | 75 | 271 | 3.0 | 10.0 | 0.00 | 0.00 | 0.00 | 52 | 1012.0 |
| 20260504185055 | 76 | 304 | 5.0 | 10.0 | 0.00 | 0.00 | 0.00 | 50 | 1012.0 |
| 20260504184555 | 75 | 290 | 3.0 | 8.0 | 0.00 | 0.00 | 0.00 | 50 | 1012.1 |
| 20260504184057 | 74 | 288 | 3.0 | 8.0 | 0.00 | 0.00 | 0.00 | 52 | 1012.1 |
| 20260504183553 | 75 | 306 | 3.0 | 7.0 | 0.00 | 0.00 | 0.00 | 48 | 1012.1 |
| 20260504183059 | 73 | 215 | 0.0 | 2.0 | 0.00 | 0.00 | 0.00 | 49 | 1012.2 |
| 20260504182051 | 73 | 225 | 0.0 | 4.0 | 0.00 | 0.00 | 0.00 | 52 | 1012.2 |
| 20260504181550 | 73 | 232 | 1.0 | 4.0 | 0.00 | 0.00 | 0.00 | 51 | 1012.1 |
| 20260504181050 | 73 | 244 | 1.0 | 4.0 | 0.00 | 0.00 | 0.00 | 51 | 1012.1 |
| 20260504180549 | 73 | 336 | 0.0 | 1.0 | 0.00 | 0.00 | 0.00 | 53 | 1012.2 |
| 20260504180122 | 72 | 225 | 0.0 | 4.0 | 0.00 | 0.00 | 0.00 | 54 | 1012.1 |
| 20260504175547 | 71 | 188 | 2.0 | 4.0 | 0.00 | 0.00 | 0.00 | 53 | 1012.1 |
| 20260504175046 | 71 | 218 | 1.0 | 5.0 | 0.00 | 0.00 | 0.00 | 53 | 1012.2 |
| 20260504174546 | 71 | 198 | 1.0 | 6.0 | 0.00 | 0.00 | 0.00 | 53 | 1012.1 |
| 20260504174045 | 71 | 207 | 0.0 | 1.0 | 0.00 | 0.00 | 0.00 | 54 | 1012.1 |
| 20260504173542 | 70 | 196 | 0.0 | 5.0 | 0.00 | 0.00 | 0.00 | 56 | 1012.2 |
| 20260504173046 | 70 | 336 | 2.0 | 5.0 | 0.00 | 0.00 | 0.00 | 57 | 1012.1 |
| 20260504171541 | 69 | 265 | 3.0 | 6.0 | 0.00 | 0.00 | 0.00 | 58 | 1012.1 |
| 20260504171040 | 69 | 254 | 1.0 | 8.0 | 0.00 | 0.00 | 0.00 | 58 | 1012.0 |
| 20260504170539 | 69 | 260 | 3.0 | 6.0 | 0.00 | 0.00 | 0.00 | 59 | 1012.0 |
| 20260504151023 | 64 | 155 | 1.0 | 5.0 | 0.00 | 0.00 | 0.00 | 55 | 1011.4 |
| 20260504150523 | 63 | 127 | 0.0 | 5.0 | 0.00 | 0.00 | 0.00 | 56 | 1011.3 |
| 20260504141011 | 60 | 101 | 1.0 | 6.0 | 0.00 | 0.00 | 0.00 | 58 | 1010.9 |
| 20260504140510 | 60 | 89 | 1.0 | 9.0 | 0.00 | 0.00 | 0.00 | 59 | 1010.9 |
| 20260504130600 | 54 | 109 | 0.0 | 2.0 | 0.00 | 0.00 | 0.00 | 70 | 1010.5 |
| 20260504120104 | 58 | 109 | 1.0 | 2.0 | 0.00 | 0.00 | 0.00 | 63 | 1010.3 |
| 20260504110546 | 59 | 144 | 0.0 | 0.0 | 0.00 | 0.00 | 0.00 | 60 | 1010.0 |
| 20260504100541 | 61 | 107 | 2.0 | 6.0 | 0.00 | 0.00 | 0.00 | 62 | 1010.1 |
| 20260504081532 | 58 | 138 | 0.0 | 1.0 | 0.00 | 0.00 | 0.00 | 76 | 1010.6 |
| 20260504081030 | 58 | 138 | 0.0 | 0.0 | 0.00 | 0.00 | 0.00 | 76 | 1010.6 |
| 20260504080532 | 59 | 138 | 0.0 | 0.0 | 0.00 | 0.00 | 0.00 | 75 | 1010.6 |
| 20260504050526 | 64 | 225 | 0.0 | 0.0 | 0.00 | 0.00 | 0.00 | 73 | 1010.4 |
| 20260504045524 | 65 | 225 | 0.0 | 0.0 | 0.00 | 0.00 | 0.00 | 73 | 1010.4 |
| 20260504045028 | 65 | 225 | 0.0 | 0.0 | 0.00 | 0.00 | 0.00 | 72 | 1010.5 |
| 20260504044533 | 66 | 225 | 0.0 | 0.0 | 0.00 | 0.00 | 0.00 | 71 | 1010.5 |
| 20260504044025 | 66 | 225 | 0.0 | 0.0 | 0.00 | 0.00 | 0.00 | 71 | 1010.5 |
| 20260504043525 | 66 | 225 | 0.0 | 0.0 | 0.00 | 0.00 | 0.00 | 70 | 1010.6 |
| 20260504043034 | 67 | 225 | 0.0 | 0.0 | 0.00 | 0.00 | 0.00 | 68 | 1010.5 |
| 20260504042032 | 68 | 225 | 0.0 | 2.0 | 0.00 | 0.00 | 0.00 | 67 | 1010.4 |
| 20260504041526 | 68 | 225 | 1.0 | 2.0 | 0.00 | 0.00 | 0.00 | 65 | 1010.3 |
| 20260504041026 | 69 | 225 | 0.0 | 2.0 | 0.00 | 0.00 | 0.00 | 64 | 1010.3 |
| 20260504040525 | 69 | 225 | 0.0 | 2.0 | 0.00 | 0.00 | 0.00 | 64 | 1010.3 |
| 20260504040025 | 69 | 225 | 0.0 | 1.0 | 0.00 | 0.00 | 0.00 | 64 | 1010.3 |
| 20260504035525 | 70 | 225 | 0.0 | 2.0 | 0.00 | 0.00 | 0.00 | 62 | 1010.3 |
| 20260504035027 | 70 | 225 | 1.0 | 3.0 | 0.00 | 0.00 | 0.00 | 62 | 1010.3 |
| 20260504034524 | 70 | 225 | 1.0 | 3.0 | 0.00 | 0.00 | 0.00 | 61 | 1010.2 |
| 20260504034025 | 71 | 225 | 1.0 | 4.0 | 0.00 | 0.00 | 0.00 | 60 | 1010.1 |
| 20260504033526 | 71 | 225 | 2.0 | 4.0 | 0.00 | 0.00 | 0.00 | 60 | 1010.0 |
| 20260504033025 | 71 | 234 | 2.0 | 3.0 | 0.00 | 0.00 | 0.00 | 59 | 1010.0 |
| 20260504032024 | 72 | 240 | 2.0 | 3.0 | 0.00 | 0.00 | 0.00 | 58 | 1010.0 |
| 20260504031523 | 73 | 253 | 1.0 | 3.0 | 0.00 | 0.00 | 0.00 | 58 | 1009.9 |
| 20260504031023 | 73 | 254 | 1.0 | 3.0 | 0.00 | 0.00 | 0.00 | 57 | 1009.9 |
| 20260504030522 | 74 | 254 | 1.0 | 3.0 | 0.00 | 0.00 | 0.00 | 56 | 1009.9 |
| 20260504030022 | 75 | 254 | 1.0 | 3.0 | 0.00 | 0.00 | 0.00 | 54 | 1009.8 |
| 20260504025525 | 75 | 255 | 0.0 | 3.0 | 0.00 | 0.00 | 0.00 | 53 | 1009.8 |
| 20260504025023 | 76 | 255 | 2.0 | 4.0 | 0.00 | 0.00 | 0.00 | 51 | 1009.8 |
| 20260504024521 | 76 | 256 | 2.0 | 6.0 | 0.00 | 0.00 | 0.00 | 51 | 1009.8 |
| 20260504024021 | 77 | 256 | 0.0 | 6.0 | 0.00 | 0.00 | 0.00 | 51 | 1009.7 |
| 20260504023521 | 78 | 268 | 1.0 | 4.0 | 0.00 | 0.00 | 0.00 | 51 | 1009.8 |
| 20260504023022 | 78 | 271 | 2.0 | 5.0 | 0.00 | 0.00 | 0.00 | 49 | 1009.7 |
| 20260504022020 | 79 | 292 | 3.0 | 7.0 | 0.00 | 0.00 | 0.00 | 48 | 1009.6 |
| 20260504021520 | 79 | 283 | 2.0 | 7.0 | 0.00 | 0.00 | 0.00 | 48 | 1009.6 |
| 20260504021019 | 80 | 278 | 3.0 | 7.0 | 0.00 | 0.00 | 0.00 | 48 | 1009.7 |
| 20260504020519 | 80 | 294 | 2.0 | 8.0 | 0.00 | 0.00 | 0.00 | 48 | 1009.7 |
| 20260504020018 | 80 | 296 | 2.0 | 8.0 | 0.00 | 0.00 | 0.00 | 48 | 1009.8 |
| 20260504015520 | 80 | 293 | 3.0 | 9.0 | 0.00 | 0.00 | 0.00 | 48 | 1009.8 |
| 20260504015017 | 80 | 278 | 3.0 | 9.0 | 0.00 | 0.00 | 0.00 | 48 | 1009.7 |
| 20260504014518 | 81 | 289 | 4.0 | 8.0 | 0.00 | 0.00 | 0.00 | 47 | 1009.8 |
| 20260504014017 | 81 | 280 | 4.0 | 8.0 | 0.00 | 0.00 | 0.00 | 47 | 1009.8 |
| 20260504013519 | 81 | 273 | 5.0 | 8.0 | 0.00 | 0.00 | 0.00 | 46 | 1009.9 |
| 20260504013020 | 81 | 298 | 3.0 | 7.0 | 0.00 | 0.00 | 0.00 | 46 | 1009.9 |
| 20260504012019 | 82 | 284 | 4.0 | 10.0 | 0.00 | 0.00 | 0.00 | 46 | 1009.9 |
| 20260504011516 | 82 | 279 | 5.0 | 10.0 | 0.00 | 0.00 | 0.00 | 45 | 1010.0 |
| 20260504011015 | 82 | 275 | 4.0 | 9.0 | 0.00 | 0.00 | 0.00 | 44 | 1010.1 |
| 20260504010517 | 82 | 286 | 5.0 | 10.0 | 0.00 | 0.00 | 0.00 | 44 | 1010.0 |
| 20260504010014 | 82 | 288 | 5.0 | 10.0 | 0.00 | 0.00 | 0.00 | 44 | 1010.2 |
| 20260504005514 | 82 | 276 | 3.0 | 8.0 | 0.00 | 0.00 | 0.00 | 45 | 1010.2 |
| 20260504005014 | 82 | 252 | 2.0 | 8.0 | 0.00 | 0.00 | 0.00 | 44 | 1010.3 |
| 20260504004518 | 83 | 267 | 3.0 | 10.0 | 0.00 | 0.00 | 0.00 | 44 | 1010.3 |
| 20260504004012 | 83 | 296 | 5.0 | 8.0 | 0.00 | 0.00 | 0.00 | 43 | 1010.3 |
| 20260504003513 | 83 | 257 | 4.0 | 9.0 | 0.00 | 0.00 | 0.00 | 43 | 1010.3 |
| 20260504003012 | 82 | 233 | 0.0 | 7.0 | 0.00 | 0.00 | 0.00 | 43 | 1010.3 |
| 20260504002014 | 82 | 280 | 0.0 | 7.0 | 0.00 | 0.00 | 0.00 | 43 | 1010.4 |